Volver al catálogo

STARLINK-34487

ActivoComunicacionesVLEO
NORAD 64417·PAYLOAD·🇺🇸 United States

Lanzado Jun 17, 2025 desde Vandenberg Space Force Base

Loading…

Próximos Pases (próximas 24 horas)

TLE

ActualizadoSource: CelesTrak SupGP

Época: Sep 15, 2026, 03:29 UTC

1 64417C 25129F   26258.14562500  .00030881  00000+0  10741-2 0  2589
2 64417  69.9999 315.0404 0003335 266.6698 300.2216 15.29568931    13

Sigue STARLINK-34487 en tiempo real con AllMySat

Download on the App Store